Riverside, CA

11:33 PM PST on February 07, 2016 (GMT -0800)
March Air Reserve Base

Weather History for KRIV - April, 2014

Change the Weather History Date:

Saturday, April 19, 2014

  Actual Average Record
Temperature  
Mean Temperature 62 °F -  
Max Temperature 79 °F 72 °F 91 °F (1999)
Min Temperature 47 °F 45 °F 34 °F (2007)
Degree Days  
Heating Degree Days 2    
Growing Degree Days 12 (Base 50)    
Moisture  
Dew Point 49 °F    
Average Humidity 65    
Maximum Humidity 92    
Minimum Humidity 33    
Precipitation  
Precipitation 0.00 in - - ()
Sea Level Pressure  
Sea Level Pressure 29.97 in    
Wind  
Wind Speed 4 mph (WNW)    
Max Wind Speed 15 mph    
Max Gust Speed -    
Visibility 10 miles    
Events      
Averages and records for this station are not official NWS values.
T = Trace of Precipitation, MM = Missing Value Source: NWS Daily Summary

Daily Weather History Graph

Daily Weather History Graph

Search for Another Location

Airport or City:

Trip Planner

Search our weather history database for the weather conditions in past years. The results will help you decide how hot, cold, wet, or windy it might be!

Date:

Astronomy

Apr. 19, 2014 Rise Set
Actual Time 6:13 AM PDT 7:23 PM PDT
Civil Twilight 5:47 AM PDT 7:49 PM PDT
Nautical Twilight 5:16 AM PDT 8:20 PM PDT
Astronomical Twilight 4:44 AM PDT 8:52 PM PDT
Moon No Moon Rise 9:42 AM PDT (4/19)
Length of Visible Light 14h 02m
Length of Day
13h 10m
Waning Gibbous, 77% of the Moon is Illuminated
Apr 19
Waning Gibbous
Apr 22
Last Quarter
Apr 28
New
May 6
First Quarter
May 14
Full

Hourly Weather History & Observations

Time (PDT) Temp. Dew Point Humidity Pressure Visibility Wind Dir Wind Speed Gust Speed Precip Events Conditions
12:58 AM 54.0 °F 48.7 °F 82% 29.95 in 10.0 mi SSE 1.2 mph - N/A   Clear
1:58 AM 52.2 °F 48.2 °F 86% 29.95 in 10.0 mi ESE 1.2 mph - N/A   Clear
2:58 AM 50.0 °F 45.1 °F 83% 29.94 in 10.0 mi Calm Calm - N/A   Clear
3:58 AM 48.9 °F 45.1 °F 87% 29.94 in 10.0 mi Calm Calm - N/A   Clear
4:58 AM 48.7 °F 46.4 °F 92% 29.93 in 10.0 mi Calm Calm - N/A   Clear
5:58 AM 47.7 °F 43.5 °F 86% 29.94 in 10.0 mi WNW 3.5 mph - N/A   Clear
6:58 AM 50.0 °F 47.1 °F 90% 29.95 in 10.0 mi NW 3.5 mph - N/A   Clear
7:58 AM 57.2 °F 51.1 °F 80% 29.97 in 10.0 mi WNW 9.2 mph - N/A   Clear
8:58 AM 60.4 °F 52.0 °F 74% 29.98 in 10.0 mi WNW 5.8 mph - N/A   Clear
9:58 AM 64.4 °F 52.2 °F 64% 29.98 in 10.0 mi Variable 3.5 mph - N/A   Clear
10:58 AM 68.0 °F 52.0 °F 56% 29.98 in 10.0 mi Variable 2.3 mph - N/A   Mostly Cloudy
11:58 AM 73.2 °F 51.3 °F 46% 29.97 in 10.0 mi WNW 11.5 mph - N/A   Mostly Cloudy
12:58 PM 74.1 °F 51.3 °F 45% 29.97 in 10.0 mi NW 11.5 mph - N/A   Mostly Cloudy
1:58 PM 76.3 °F 49.8 °F 39% 29.96 in 10.0 mi WNW 10.4 mph - N/A   Mostly Cloudy
2:58 PM 78.8 °F 47.7 °F 33% 29.95 in 10.0 mi WNW 6.9 mph - N/A   Clear
3:58 PM 78.3 °F 47.8 °F 34% 29.94 in 10.0 mi NW 9.2 mph - N/A   Clear
4:58 PM 77.2 °F 49.8 °F 38% 29.94 in 10.0 mi WNW 12.7 mph - N/A   Partly Cloudy
5:58 PM 75.0 °F 49.8 °F 41% 29.95 in 10.0 mi WNW 15.0 mph - N/A   Clear
6:58 PM 70.2 °F 48.9 °F 47% 29.96 in 10.0 mi NW 13.8 mph - N/A   Clear
7:58 PM 66.4 °F 51.6 °F 59% 29.98 in 10.0 mi NW 10.4 mph - N/A   Partly Cloudy
8:58 PM 62.8 °F 51.8 °F 67% 30.02 in 10.0 mi NW 8.1 mph - 0.00 in   Clear
9:58 PM 59.5 °F 50.4 °F 72% 30.03 in 10.0 mi WNW 5.8 mph - N/A   Clear
10:58 PM 57.9 °F 51.6 °F 80% 30.04 in 10.0 mi SSE 5.8 mph - N/A   Clear
11:58 PM 57.6 °F 52.3 °F 83% 30.04 in 10.0 mi Calm Calm - N/A   Clear